SEASAT 1

Last updated on Wed Jul 02 2025 00:02:13 GMT+0000 (Coordinated Universal Time)

1 10967U 78064A 25182.23515114 .00000228 00000+0 10290-3 0 9994 2 10967 108.0089 318.0036 0000772 270.2903 89.8154 14.45855557470163
UTC large
Height (km)
Speed (km/s)
/
Latitude / Longitude
Inclination (degrees)
Orbital Period (minutes)
Azimuth
Elevation
Range (km)
Doppler Factor

Next 0 passes for location: London (51.5072 / 0.1276)

Sorry there are no passes over London.